User: anonymous   Login
Location: Unspecified
(0.0000°N, 0.0000°E)
Time: 04:16:17
(UTC+00:00)
Language:

USA 176 - Orbit

View from above orbital plane
View from above orbital plane
View from above satellite
View from above satellite

Ground track
Ground track

The orbit data is extracted from the following two-line orbital elements,

1 28158U 04004A   17328.76469186 0.00000000  00000-0  00000-0 0    03
2 28158   7.9490  44.6757 0006142 336.7119  23.2620  1.00270000    06
Epoch (UTC): 24 November 2017 18:21:09
Eccentricity: 0.0006142
inclination: 7.9490°
perigee height: 35761 km
apogee height: 35812 km
right ascension of ascending node: 44.6757°
argument of perigee: 336.7119°
revolutions per day: 1.00270000
mean anomaly at epoch: 23.2620°
orbit number at epoch: 0

The dashed part of the orbit path shows where the satellite is in the earth's shadow,  

DLR